Flag for Micronesia Weather past 2 weeks in Weno, Truk, Micronesia

83 °F

Mostly cloudy.

Feels Like: 93 °F
Forecast: 81 / 87 °F
Wind: 8 mph from Northeast

Location: Truk Intl / Moen Island

Current Time: Nov 29, 2015 at 10:58:37 PM

Latest Report: Nov 29, 2015 at 9:50 PM

Visibility: 15 mi

Pressure: 29.84 "Hg

Humidity: 83%

Dew point: 77 °F

Location of WenoLocation

Historic Weather in Weno — Graph


Weno temperature yesterday

Maximum temperature yesterday: 87 °F (at 12:51 PM)
Minimum temperature yesterday: 80 °F (at 4:50 PM)
Average temperature yesterday: 83 °F

Past Weeks' High & Low Weather Summary

High89 °F (Nov 18, 11:50 AM)98% (Nov 19, 3:54 AM)29.86 "Hg (Nov 19, 3:54 AM)
Low77 °F (Nov 19, 2:51 AM)68% (Nov 27, 1:50 PM)29.63 "Hg (Nov 19, 12:52 PM)
Average83 °F85%29.77 "Hg
* Reported Nov 14 8:50 PM — Nov 29 8:50 PM, Weno, Weather by CustomWeather, © 2015

Note: Actual official high and low records may vary slightly from our data, if they occured in-between our weather recording intervals... More about our weather records


Weno weather history for previous 24 hours

Time TempWeatherWind HumidityBarometerVisibility
8:50 PM
Sun, Nov 29
83 °FMostly cloudy.8 mph83%29.83 "Hg15 mi
7:53 PM83 °FMostly cloudy.8 mph80%29.81 "Hg15 mi
6:52 PM83 °FMostly cloudy.9 mph82%29.79 "Hg15 mi
5:53 PM84 °FMostly cloudy.9 mph82%29.78 "Hg15 mi
4:52 PM85 °FPartly sunny.10 mph80%29.75 "Hg15 mi
3:51 PM86 °FPartly sunny.8 mph76%29.74 "Hg15 mi
2:51 PM86 °FOvercast.12 mph77%29.74 "Hg15 mi
1:50 PM87 °FOvercast.10 mph76%29.75 "Hg15 mi
12:50 PM87 °FOvercast.10 mph76%29.78 "Hg15 mi
11:54 AM86 °FMore clouds than sun.10 mph82%29.80 "Hg15 mi
10:51 AM83 °FScattered showers. More clouds than sun.5 mph86%29.83 "Hg15 mi
9:52 AM85 °FScattered showers. More clouds than sun.9 mph79%29.85 "Hg15 mi
8:50 AM85 °FBroken clouds.9 mph81%29.86 "Hg15 mi
7:51 AM85 °FBroken clouds.9 mph81%29.86 "Hg15 mi
6:51 AM83 °FBroken clouds.10 mph82%29.83 "Hg15 mi
5:51 AM82 °FBroken clouds.8 mph88%29.81 "Hg15 mi
4:53 AM82 °FMostly cloudy.8 mph85%29.79 "Hg15 mi
3:50 AM82 °FOvercast.6 mph85%29.79 "Hg15 mi
2:51 AM82 °FOvercast.6 mph84%29.79 "Hg15 mi
1:50 AM82 °FOvercast.6 mph85%29.80 "Hg15 mi
12:50 AM82 °FOvercast.8 mph84%29.81 "Hg15 mi
10:50 PM
Sat, Nov 28
81 °FOvercast.9 mph86%29.83 "Hg15 mi
Weather by CustomWeather, © 2015

See weather overviewHow to use our weather pages